Location: Bacharowice
(49.9333°N, 19.5833°E)
Time: 09:09:12
(UTC+00:00)

PSLV R/B - Pass Details

Date: 11 May 2021
Orbit: 596 x 702 km, 97.9° (Epoch: 21 June)

Event Time Altitude Azimuth Distance (km) Brightness Sun altitude
Rises 22:53:35 0° 16° (NNE) 2,963 8.5 -21.9°
Reaches altitude 10° 22:55:51 10° 19° (NNE) 2,032 7.3 -21.8°
Maximum altitude 23:00:14 66° 102° (ESE) 680 3.6 -21.8°
Enters shadow 23:00:47 59° 145° (SE) 720 3.6 -21.8°
